Year,Month,Day,Hour,Minute,Value (Times are PST for temperature in C)
2009,08,10,12,28,14.80
2009,08,10,12,29,14.80
2009,08,10,12,30,14.90
2009,08,10,12,31,14.90
2009,08,10,12,32,14.80
2009,08,10,12,33,14.80
2009,08,10,12,34,14.80
2009,08,10,12,35,14.80
2009,08,10,12,36,14.80
2009,08,10,12,37,14.80
2009,08,10,12,38,14.80
2009,08,10,12,39,14.80
2009,08,10,12,40,14.80
2009,08,10,12,41,14.80
2009,08,10,12,42,14.80
2009,08,10,12,43,14.80
2009,08,10,12,44,14.70
2009,08,10,12,45,14.70
2009,08,10,12,46,14.70
2009,08,10,12,47,14.70
2009,08,10,12,48,14.70
2009,08,10,12,49,14.70
2009,08,10,12,50,14.70
2009,08,10,12,51,14.70
2009,08,10,12,52,14.70
2009,08,10,12,53,14.80
2009,08,10,12,54,14.70
2009,08,10,12,55,14.70
2009,08,10,12,56,14.70
2009,08,10,12,57,14.70
2009,08,10,12,58,14.80
2009,08,10,12,59,14.80
2009,08,10,13,00,14.90
2009,08,10,13,01,14.90
2009,08,10,13,02,14.80
2009,08,10,13,03,14.90
2009,08,10,13,04,14.90
2009,08,10,13,05,14.80
2009,08,10,13,06,14.80
2009,08,10,13,07,14.80
2009,08,10,13,08,14.80
2009,08,10,13,09,14.80
2009,08,10,13,10,14.80
2009,08,10,13,11,14.80
2009,08,10,13,12,14.80
2009,08,10,13,13,14.80
2009,08,10,13,14,14.80
2009,08,10,13,15,14.70
2009,08,10,13,16,14.80
2009,08,10,13,17,14.80
2009,08,10,13,18,14.80
2009,08,10,13,19,14.80
2009,08,10,13,20,14.70
2009,08,10,13,21,14.70
2009,08,10,13,22,14.70
2009,08,10,13,23,14.60
2009,08,10,13,24,14.60
2009,08,10,13,25,14.60
2009,08,10,13,26,14.60
2009,08,10,13,27,14.60
2009,08,10,13,28,14.60
2009,08,10,13,29,14.60
2009,08,10,13,30,14.60
2009,08,10,13,31,14.60
2009,08,10,13,32,14.60
2009,08,10,13,33,14.60
2009,08,10,13,34,14.60
2009,08,10,13,35,14.60
2009,08,10,13,36,14.60
2009,08,10,14,09,14.70
2009,08,10,14,10,14.70
2009,08,10,14,11,14.70
2009,08,10,14,12,14.70
2009,08,10,14,13,14.70
2009,08,10,14,14,14.70
2009,08,10,14,15,14.70
2009,08,10,14,16,14.70
2009,08,10,14,17,14.80
2009,08,10,14,18,14.80
2009,08,10,14,19,14.80
2009,08,10,14,20,14.80
2009,08,10,14,21,14.80
2009,08,10,14,22,14.80
2009,08,10,14,23,14.90
2009,08,10,14,24,15.00
2009,08,10,14,25,15.00
2009,08,10,14,26,15.00
2009,08,10,14,27,15.00
2009,08,10,14,28,15.00
2009,08,10,14,29,15.00
2009,08,10,14,30,15.00
2009,08,10,14,31,15.00
2009,08,10,14,32,15.10
2009,08,10,14,33,15.10
2009,08,10,14,34,15.20
2009,08,10,14,35,15.20
2009,08,10,14,36,15.20
2009,08,10,14,37,15.20
2009,08,10,14,38,15.20
2009,08,10,14,39,15.20
2009,08,10,14,40,15.20
2009,08,10,14,41,15.20
2009,08,10,14,42,15.20
2009,08,10,14,43,15.20
2009,08,10,14,44,15.30
2009,08,10,14,45,15.30
2009,08,10,14,46,15.30
2009,08,10,14,47,15.30
2009,08,10,14,48,15.30
2009,08,10,14,49,15.30
2009,08,10,14,50,15.30
2009,08,10,14,51,15.30
2009,08,10,14,52,15.30
2009,08,10,14,53,15.40
2009,08,10,14,54,15.40
2009,08,10,14,55,15.40
2009,08,10,14,56,15.40
2009,08,10,14,57,15.40
2009,08,10,14,58,15.40
2009,08,10,14,59,15.40
2009,08,10,15,00,15.40
2009,08,10,15,01,15.40
2009,08,10,15,02,15.50
2009,08,10,15,03,15.50
2009,08,10,15,04,15.60
2009,08,10,15,05,15.60
2009,08,10,15,06,15.70
2009,08,10,15,07,15.70
2009,08,10,15,08,15.70
2009,08,10,15,09,15.70
2009,08,10,15,10,15.70
2009,08,10,15,11,15.70
2009,08,10,15,12,15.70
2009,08,10,15,13,15.70
2009,08,10,15,14,15.70
2009,08,10,15,15,15.70
2009,08,10,15,16,15.70
2009,08,10,15,17,15.80
2009,08,10,15,18,15.90
2009,08,10,15,19,15.90
2009,08,10,15,20,16.00
2009,08,10,15,21,16.00
2009,08,10,15,22,16.00
2009,08,10,15,23,16.00
2009,08,10,15,24,16.00
2009,08,10,15,25,16.00
2009,08,10,15,26,16.00
2009,08,10,15,27,16.00
2009,08,10,15,28,16.10
2009,08,10,15,29,16.10
2009,08,10,15,30,16.00
2009,08,10,15,31,16.00
2009,08,10,15,32,16.10
2009,08,10,15,33,16.10
2009,08,10,15,34,16.10
2009,08,10,15,35,16.20
2009,08,10,15,36,16.20
2009,08,10,15,37,16.20
2009,08,10,15,38,16.20
2009,08,10,15,39,16.30
2009,08,10,15,40,16.30
2009,08,10,15,41,16.30
2009,08,10,15,42,16.30
2009,08,10,15,43,16.30
2009,08,10,15,44,16.40
2009,08,10,15,45,16.40
2009,08,10,15,46,16.40
2009,08,10,15,47,16.40
2009,08,10,15,48,16.40
2009,08,10,15,49,16.30
2009,08,10,15,50,16.40
2009,08,10,15,51,16.40
2009,08,10,15,52,16.40
2009,08,10,15,53,16.30
2009,08,10,15,54,16.30
2009,08,10,15,55,16.30
2009,08,10,15,56,16.30
2009,08,10,15,57,16.40
2009,08,10,15,58,16.40
2009,08,10,15,59,16.40
2009,08,10,16,00,16.40
2009,08,10,16,01,16.40
2009,08,10,16,02,16.50
2009,08,10,16,03,16.60
2009,08,10,16,04,16.60
2009,08,10,16,05,16.60
2009,08,10,16,06,16.60
2009,08,10,16,07,16.60
2009,08,10,16,08,16.60
2009,08,10,16,09,16.60
2009,08,10,16,10,16.60
2009,08,10,16,11,16.60
2009,08,10,16,12,16.60
2009,08,10,16,13,16.60
2009,08,10,16,14,16.70
2009,08,10,16,15,16.70
2009,08,10,16,16,16.70
2009,08,10,16,17,16.80
2009,08,10,16,18,16.80
2009,08,10,16,19,16.80
2009,08,10,16,20,16.80
2009,08,10,16,21,16.80
2009,08,10,16,22,16.80
2009,08,10,16,23,16.80
2009,08,10,16,24,16.80
2009,08,10,16,25,16.80
2009,08,10,16,26,16.80
2009,08,10,16,27,16.80
2009,08,10,16,28,16.80
2009,08,10,16,29,16.80
2009,08,10,16,30,16.80
2009,08,10,16,31,16.80
2009,08,10,16,32,16.80
2009,08,10,16,33,16.80
2009,08,10,16,34,16.80
2009,08,10,16,35,16.80
2009,08,10,16,36,16.70
2009,08,10,16,37,16.70
2009,08,10,16,38,16.70
2009,08,10,16,39,16.70
2009,08,10,16,40,16.70
2009,08,10,16,41,16.70
2009,08,10,16,42,16.70
2009,08,10,16,43,16.70
2009,08,10,16,44,16.70
2009,08,10,16,45,16.70
2009,08,10,16,46,16.70
2009,08,10,16,47,16.60
2009,08,10,16,48,16.60
2009,08,10,16,49,16.50
2009,08,10,16,50,16.50
2009,08,10,16,51,16.50
2009,08,10,16,52,16.60
2009,08,10,16,53,16.60
2009,08,10,16,54,16.60
2009,08,10,16,55,16.60
2009,08,10,16,56,16.60
2009,08,10,16,57,16.60
2009,08,10,16,58,16.60
2009,08,10,16,59,16.60
2009,08,10,17,00,16.60
2009,08,10,17,01,16.60
2009,08,10,17,02,16.60
2009,08,10,17,03,16.60
2009,08,10,17,04,16.70
2009,08,10,17,05,16.70
2009,08,10,17,06,16.80
2009,08,10,17,07,16.80
2009,08,10,17,08,16.80
2009,08,10,17,09,16.80
2009,08,10,17,10,16.80
2009,08,10,17,11,16.80
2009,08,10,17,12,16.80
2009,08,10,17,13,16.80
2009,08,10,17,14,16.80
2009,08,10,17,15,16.80
2009,08,10,17,16,16.80
2009,08,10,17,17,16.80
2009,08,10,17,18,16.80
2009,08,10,17,19,16.80
2009,08,10,17,20,16.80
2009,08,10,17,21,16.80
2009,08,10,17,22,16.90
2009,08,10,17,23,16.80
2009,08,10,17,24,16.80
2009,08,10,17,25,16.80
2009,08,10,17,26,16.70
2009,08,10,17,27,16.70
2009,08,10,17,28,16.70
2009,08,10,17,29,16.70
2009,08,10,17,30,16.70
2009,08,10,17,31,16.70
2009,08,10,17,32,16.70
2009,08,10,17,33,16.70
2009,08,10,17,34,16.70
2009,08,10,17,35,16.70
2009,08,10,17,36,16.70
2009,08,10,17,37,16.70
2009,08,10,17,38,16.70
2009,08,10,17,39,16.70
2009,08,10,17,40,16.70
2009,08,10,17,41,16.70
2009,08,10,17,42,16.80
2009,08,10,17,43,16.80
2009,08,10,17,44,16.80
2009,08,10,17,45,16.80
2009,08,10,17,46,16.80
2009,08,10,17,47,16.80
2009,08,10,17,48,16.80
2009,08,10,17,49,16.80
2009,08,10,17,50,16.80
2009,08,10,17,51,16.90
2009,08,10,17,52,17.00
2009,08,10,17,53,17.00
2009,08,10,17,54,17.00
2009,08,10,17,55,17.00
2009,08,10,17,56,17.00
2009,08,10,17,57,17.00
2009,08,10,17,58,17.00
2009,08,10,17,59,17.00
2009,08,10,18,00,17.00
2009,08,10,18,01,17.00
2009,08,10,18,02,17.00
2009,08,10,18,03,17.00
2009,08,10,18,04,17.00
2009,08,10,18,05,16.90
2009,08,10,18,06,17.00
2009,08,10,18,07,16.90
2009,08,10,18,08,16.90
2009,08,10,18,09,16.90
2009,08,10,18,10,17.00
2009,08,10,18,11,17.00
2009,08,10,18,12,17.00
2009,08,10,18,13,17.10
2009,08,10,18,14,17.10
2009,08,10,18,15,17.10
2009,08,10,18,16,17.10
2009,08,10,18,17,17.10
2009,08,10,18,18,17.10
2009,08,10,18,19,17.10
2009,08,10,18,20,17.10
2009,08,10,18,21,17.10
2009,08,10,18,22,17.10
2009,08,10,18,23,17.10
2009,08,10,18,24,17.10
2009,08,10,18,25,17.20
2009,08,10,18,26,17.20
2009,08,10,18,27,17.20
2009,08,10,18,28,17.20
2009,08,10,18,29,17.20
2009,08,10,18,30,17.20
2009,08,10,18,31,17.20
2009,08,10,18,32,17.20
2009,08,10,18,33,17.10
2009,08,10,18,34,17.10
2009,08,10,18,35,17.10
2009,08,10,18,36,17.10
2009,08,10,18,37,17.10
2009,08,10,18,38,17.10
2009,08,10,18,39,17.10
2009,08,10,18,40,17.10
2009,08,10,18,41,17.10
2009,08,10,18,42,17.10
2009,08,10,18,43,17.10
